Total_Precipitation_Accumulation
0.88 1.01 1.53 2.14 2.02 1.37 0.99 0.64 0.35 0.38 0.35 0.15 0.07 0.07 0.22 0.52 0.71 0.88 0.73 0.51 0.33 0.27 0.27 0.36 0.47 0.42 0.37 0.33 0.30 0.29 0.32 0.31 0.25 0.25 0.24 0.19 0.15 0.14 0.14 0.11 0.09 0.09 0.11 0.13 0.16 0.22 0.27 0.33 0.39
0.89 1.49 2.09 2.44 1.80 1.19 1.07 0.71 0.46 0.30 0.20 0.10 0.07 0.06 0.17 0.22 0.21 0.38 0.79 0.82 0.38 0.34 0.32 0.37 0.54 0.53 0.49 0.42 0.39 0.39 0.40 0.38 0.32 0.28 0.26 0.22 0.18 0.16 0.17 0.15 0.13 0.12 0.13 0.17 0.18 0.19 0.25 0.32 0.39
1.22 1.94 2.42 2.14 1.36 1.13 1.15 0.73 0.46 0.23 0.12 0.10 0.09 0.07 0.14 0.22 0.28 0.52 0.79 0.63 0.36 0.32 0.34 0.48 0.63 0.58 0.57 0.51 0.49 0.49 0.47 0.44 0.39 0.34 0.31 0.28 0.25 0.20 0.20 0.19 0.19 0.20 0.21 0.22 0.22 0.22 0.26 0.31 0.32
1.40 1.93 1.96 1.52 1.16 0.94 0.77 0.59 0.32 0.22 0.14 0.06 0.06 0.11 0.12 0.20 0.37 0.60 0.57 0.42 0.38 0.36 0.35 0.48 0.59 0.56 0.59 0.58 0.59 0.61 0.53 0.49 0.45 0.40 0.38 0.38 0.34 0.29 0.27 0.28 0.31 0.29 0.30 0.29 0.28 0.29 0.32 0.33 0.33
1.59 1.81 1.62 1.23 1.18 0.89 0.61 0.44 0.28 0.26 0.18 0.07 0.06 0.17 0.24 0.28 0.41 0.55 0.59 0.48 0.47 0.46 0.39 0.41 0.50 0.54 0.61 0.60 0.57 0.65 0.64 0.62 0.51 0.44 0.41 0.41 0.40 0.40 0.39 0.42 0.44 0.45 0.43 0.40 0.38 0.36 0.34 0.33 0.35
1.57 1.58 1.40 1.21 1.24 1.04 0.85 0.58 0.37 0.31 0.20 0.10 0.09 0.22 0.29 0.35 0.49 0.57 0.62 0.65 0.61 0.59 0.48 0.41 0.47 0.55 0.60 0.61 0.67 0.79 0.80 0.72 0.59 0.48 0.48 0.47 0.49 0.48 0.48 0.49 0.48 0.54 0.58 0.56 0.49 0.45 0.37 0.33 0.35
1.65 1.51 1.21 0.95 1.04 1.27 0.98 0.68 0.53 0.39 0.26 0.17 0.12 0.25 0.32 0.34 0.42 0.54 0.65 0.75 0.86 0.86 0.72 0.57 0.55 0.60 0.70 0.77 0.81 0.93 0.97 0.90 0.72 0.57 0.57 0.57 0.53 0.48 0.47 0.52 0.53 0.55 0.57 0.57 0.54 0.52 0.46 0.40 0.37
1.41 1.33 1.04 1.00 1.09 1.29 1.00 0.68 0.49 0.33 0.25 0.19 0.16 0.28 0.45 0.41 0.44 0.55 0.64 0.78 0.87 0.92 0.87 0.79 0.74 0.74 0.82 0.88 1.01 1.11 1.21 1.31 1.06 0.78 0.69 0.64 0.54 0.49 0.50 0.52 0.55 0.58 0.65 0.62 0.59 0.58 0.53 0.51 0.44
1.33 1.40 1.26 1.41 1.34 0.95 0.73 0.66 0.41 0.24 0.21 0.19 0.18 0.22 0.30 0.37 0.41 0.51 0.58 0.63 0.65 0.67 0.72 0.77 0.80 0.86 0.86 0.82 0.88 1.11 1.29 1.46 1.20 0.83 0.84 0.76 0.55 0.55 0.60 0.59 0.70 0.74 0.79 0.78 0.75 0.74 0.71 0.65 0.54
1.32 1.25 1.15 1.17 0.99 0.78 0.66 0.57 0.40 0.28 0.25 0.19 0.18 0.22 0.27 0.32 0.41 0.47 0.51 0.55 0.53 0.54 0.51 0.54 0.57 0.66 0.73 0.72 0.93 1.18 1.22 1.34 1.09 0.92 0.95 0.92 0.96 0.90 0.70 0.69 0.86 0.96 1.00 0.94 0.91 0.91 0.82 0.69 0.51
1.10 1.05 0.82 0.64 0.49 0.48 0.46 0.39 0.28 0.26 0.25 0.19 0.19 0.25 0.28 0.32 0.36 0.41 0.45 0.45 0.44 0.42 0.40 0.39 0.41 0.44 0.53 0.74 0.98 1.20 1.25 1.29 1.33 1.36 1.22 1.20 1.15 0.96 0.78 0.75 0.80 0.86 0.93 0.88 0.96 0.95 0.78 0.67 0.53
1.04 0.87 0.70 0.56 0.38 0.33 0.32 0.26 0.25 0.23 0.21 0.17 0.18 0.23 0.31 0.36 0.35 0.35 0.40 0.45 0.48 0.46 0.44 0.38 0.30 0.31 0.39 0.53 0.75 1.03 1.10 1.16 1.24 1.24 1.04 1.13 1.13 0.95 0.88 0.97 1.00 0.96 0.94 1.05 1.08 1.03 0.96 0.79 0.60
1.00 0.84 0.62 0.40 0.32 0.31 0.30 0.27 0.22 0.19 0.18 0.16 0.19 0.26 0.34 0.38 0.36 0.32 0.32 0.37 0.44 0.53 0.61 0.59 0.43 0.37 0.39 0.45 0.50 0.64 0.74 0.85 1.13 1.21 0.95 0.93 0.95 0.99 1.01 0.93 1.06 1.12 1.11 1.10 1.08 0.98 0.92 0.89 0.76
0.93 0.70 0.47 0.35 0.32 0.28 0.29 0.27 0.18 0.20 0.20 0.16 0.18 0.25 0.32 0.38 0.41 0.39 0.36 0.34 0.33 0.36 0.49 0.57 0.55 0.54 0.52 0.45 0.40 0.40 0.46 0.59 0.74 0.76 0.72 0.75 0.78 0.87 1.04 0.97 0.95 1.02 1.20 1.25 1.18 1.07 1.06 1.02 0.84
0.61 0.53 0.49 0.41 0.37 0.36 0.34 0.31 0.17 0.16 0.19 0.15 0.13 0.17 0.21 0.26 0.32 0.36 0.33 0.26 0.25 0.26 0.32 0.42 0.50 0.56 0.58 0.59 0.58 0.48 0.47 0.54 0.56 0.56 0.62 0.69 0.69 0.82 0.98 0.92 0.82 0.81 0.97 1.14 1.24 1.25 1.17 1.03 0.90
0.62 0.57 0.73 0.55 0.50 0.47 0.41 0.31 0.13 0.16 0.14 0.11 0.09 0.10 0.12 0.14 0.16 0.22 0.27 0.27 0.25 0.25 0.25 0.31 0.36 0.43 0.53 0.62 0.69 0.66 0.62 0.58 0.52 0.49 0.47 0.50 0.52 0.60 0.79 0.85 0.76 0.75 0.92 1.11 1.25 1.32 1.31 1.15 1.07
0.73 0.67 0.64 0.56 0.45 0.37 0.26 0.18 0.11 0.10 0.08 0.06 0.04 0.05 0.06 0.08 0.10 0.12 0.15 0.20 0.24 0.24 0.23 0.24 0.28 0.32 0.40 0.51 0.58 0.58 0.57 0.54 0.52 0.52 0.41 0.39 0.41 0.52 0.72 0.89 0.91 0.91 1.00 1.10 1.15 1.30 1.31 1.29 1.16
0.50 0.41 0.41 0.34 0.29 0.22 0.16 0.11 0.09 0.06 0.04 0.03 0.04 0.04 0.03 0.02 0.03 0.06 0.09 0.15 0.23 0.24 0.24 0.24 0.26 0.27 0.31 0.36 0.43 0.48 0.46 0.44 0.50 0.49 0.47 0.51 0.58 0.64 0.82 1.03 1.12 1.23 1.24 1.25 1.38 1.62 1.55 1.33 1.24
0.39 0.23 0.18 0.15 0.13 0.10 0.08 0.05 0.05 0.04 0.02 0.01 0.02 0.02 0.02 0.02 0.02 0.02 0.02 0.06 0.13 0.18 0.17 0.19 0.24 0.26 0.25 0.24 0.29 0.34 0.35 0.44 0.51 0.59 0.64 0.68 0.71 0.79 0.99 1.20 1.41 1.53 1.40 1.37 1.53 1.75 1.84 1.59 1.40
0.37 0.24 0.15 0.14 0.08 0.05 0.04 0.03 0.03 0.02 0.02 0.01 0.01 0.01 0.01 0.01 0.02 0.02 0.01 0.01 0.02 0.05 0.09 0.13 0.15 0.17 0.17 0.18 0.23 0.32 0.39 0.45 0.58 0.74 0.85 0.87 0.85 0.89 0.94 1.14 1.34 1.39 1.42 1.43 1.49 1.64 1.87 1.76 1.55
0.19 0.14 0.12 0.12 0.05 0.03 0.04 0.04 0.03 0.03 0.02 0.01 0.02 0.02 0.03 0.02 0.03 0.02 0.02 0.01 0.01 0.02 0.03 0.06 0.11 0.14 0.14 0.22 0.41 0.68 0.92 1.01 1.02 1.04 1.19 1.28 1.24 1.18 1.15 1.18 1.32 1.39 1.50 1.48 1.48 1.50 1.66 1.73 1.65
0.14 0.08 0.06 0.06 0.05 0.04 0.03 0.03 0.03 0.04 0.05 0.06 0.06 0.07 0.07 0.08 0.06 0.04 0.03 0.03 0.02 0.03 0.03 0.04 0.09 0.15 0.18 0.35 0.68 1.07 1.39 1.48 1.49 1.61 1.65 1.71 1.63 1.49 1.47 1.47 1.56 1.49 1.45 1.38 1.38 1.39 1.50 1.73 1.73
0.15 0.09 0.04 0.03 0.04 0.04 0.03 0.03 0.04 0.08 0.12 0.16 0.16 0.17 0.18 0.15 0.11 0.08 0.07 0.06 0.08 0.10 0.11 0.13 0.20 0.34 0.50 0.65 0.83 1.13 1.32 1.44 1.58 1.74 1.88 1.99 2.11 2.08 1.99 1.92 1.77 1.58 1.48 1.44 1.47 1.46 1.50 1.57 1.61
0.11 0.07 0.04 0.02 0.02 0.03 0.02 0.04 0.09 0.16 0.21 0.24 0.24 0.25 0.24 0.19 0.13 0.10 0.10 0.11 0.16 0.24 0.27 0.31 0.41 0.51 0.58 0.70 0.84 0.98 1.07 1.23 1.43 1.58 1.75 1.88 2.00 2.03 1.97 1.84 1.61 1.43 1.36 1.41 1.50 1.51 1.51 1.50 1.52
0.06 0.05 0.06 0.06 0.06 0.06 0.03 0.07 0.16 0.17 0.17 0.20 0.21 0.18 0.15 0.15 0.15 0.14 0.13 0.19 0.24 0.33 0.37 0.44 0.52 0.62 0.65 0.73 0.83 0.91 0.97 1.10 1.27 1.32 1.36 1.38 1.38 1.42 1.45 1.45 1.41 1.35 1.29 1.35 1.51 1.57 1.58 1.57 1.53
0.03 0.02 0.07 0.13 0.10 0.08 0.05 0.14 0.24 0.16 0.10 0.08 0.10 0.11 0.12 0.17 0.21 0.20 0.20 0.27 0.33 0.41 0.52 0.60 0.68 0.70 0.72 0.80 0.89 0.90 0.99 1.11 1.20 1.15 1.10 1.12 1.16 1.24 1.25 1.32 1.32 1.31 1.31 1.32 1.37 1.47 1.58 1.59 1.52
0.02 0.01 0.02 0.03 0.02 0.03 0.06 0.16 0.15 0.07 0.05 0.05 0.09 0.15 0.20 0.27 0.30 0.31 0.33 0.38 0.41 0.49 0.60 0.68 0.73 0.75 0.82 0.86 0.94 1.08 1.12 1.13 1.10 1.00 0.94 0.96 0.92 0.93 1.04 1.14 1.20 1.16 1.17 1.20 1.29 1.41 1.46 1.53 1.57
0.01 0.02 0.02 0.04 0.04 0.08 0.12 0.16 0.13 0.09 0.10 0.12 0.17 0.24 0.35 0.44 0.45 0.47 0.53 0.56 0.56 0.57 0.65 0.73 0.80 0.87 0.89 0.91 1.02 1.19 1.14 0.91 0.76 0.66 0.70 0.74 0.78 0.82 0.89 0.86 0.82 0.81 0.86 0.88 0.98 1.14 1.22 1.27 1.34
0.05 0.03 0.02 0.02 0.03 0.14 0.30 0.43 0.46 0.45 0.38 0.42 0.42 0.49 0.63 0.68 0.69 0.69 0.70 0.72 0.66 0.67 0.73 0.78 0.83 0.93 0.97 0.93 1.03 1.06 0.85 0.61 0.49 0.47 0.45 0.44 0.47 0.52 0.60 0.55 0.52 0.58 0.62 0.59 0.66 0.76 0.87 0.95 1.00
0.07 0.06 0.03 0.05 0.07 0.16 0.34 0.54 0.65 0.70 0.68 0.79 0.85 0.96 0.89 0.83 0.83 0.77 0.70 0.68 0.57 0.58 0.67 0.75 0.84 0.89 0.84 0.80 0.79 0.65 0.47 0.37 0.34 0.30 0.25 0.22 0.22 0.22 0.29 0.32 0.32 0.40 0.51 0.52 0.57 0.61 0.63 0.69 0.73